SVR0301 OERK-HEMA

Flight info

Callsign SVR0301
Flight time 2h 11m
Altitude 36000
Route IVONU Y216 PMA V22 YEN L300 MEMPO V730 ALKUN
Aircraft A320/M-SDE3FGHIRWY/LB1

Departure

Time 2026-04-29 13:08
Airport King Khalid International Airport (OERK)

Arrival

Time 2026-04-29 15:19
Airport Marsa Alam International Airport (HEMA)
Time Latitude Longitude Altitude Speed Heading
2026-04-29 12:45 24.95694 46.70629 2031 ft 0 kts 207°
2026-04-29 12:58 24.95701 46.70633 2037 ft 4 kts 207°
2026-04-29 12:58 24.95725 46.70647 2034 ft 4 kts 208°
2026-04-29 12:58 24.95749 46.70661 2034 ft 4 kts 208°
2026-04-29 12:59 24.95770 46.70673 2040 ft 4 kts 210°
2026-04-29 12:59 24.95789 46.70691 2035 ft 4 kts 245°
2026-04-29 12:59 24.95793 46.70718 2035 ft 4 kts 286°
2026-04-29 12:59 24.95781 46.70744 2038 ft 4 kts 316°
2026-04-29 13:00 24.95769 46.70754 2030 ft 0 kts 332°
2026-04-29 13:02 24.95775 46.70751 2037 ft 3 kts 330°
2026-04-29 13:02 24.95798 46.70736 2035 ft 4 kts 329°
2026-04-29 13:02 24.95837 46.70710 2034 ft 9 kts 329°
2026-04-29 13:03 24.95910 46.70663 2032 ft 15 kts 330°
2026-04-29 13:03 24.96012 46.70598 2030 ft 19 kts 330°
2026-04-29 13:03 24.96136 46.70521 2033 ft 22 kts 330°
2026-04-29 13:03 24.96271 46.70436 2032 ft 23 kts 330°
2026-04-29 13:04 24.96416 46.70344 2033 ft 25 kts 330°
2026-04-29 13:04 24.96571 46.70246 2034 ft 26 kts 330°
2026-04-29 13:04 24.96733 46.70144 2036 ft 28 kts 330°
2026-04-29 13:04 24.96905 46.70036 2032 ft 28 kts 330°
2026-04-29 13:05 24.97071 46.69931 2032 ft 27 kts 330°
2026-04-29 13:05 24.97200 46.69848 2031 ft 20 kts 330°
2026-04-29 13:05 24.97317 46.69773 2031 ft 19 kts 330°
2026-04-29 13:05 24.97427 46.69755 2031 ft 16 kts 39°
2026-04-29 13:06 24.97495 46.69867 2034 ft 19 kts 59°
2026-04-29 13:06 24.97561 46.69997 2031 ft 20 kts 61°
2026-04-29 13:06 24.97623 46.70130 2028 ft 19 kts 71°
2026-04-29 13:06 24.97621 46.70219 2033 ft 17 kts 114°
2026-04-29 13:07 24.97553 46.70285 2031 ft 0 kts 149°
2026-04-29 13:07 24.97552 46.70285 2035 ft 1 kts 149°
2026-04-29 13:07 24.97515 46.70310 2030 ft 28 kts 150°
2026-04-29 13:07 24.97111 46.70569 2031 ft 102 kts 150°
2026-04-29 13:08 24.96315 46.71069 2030 ft 159 kts 150°
2026-04-29 13:08 24.95238 46.71754 2250 ft 189 kts 147°
2026-04-29 13:08 24.94087 46.72507 2957 ft 192 kts 143°
2026-04-29 13:08 24.93021 46.73409 3594 ft 197 kts 138°
2026-04-29 13:09 24.91917 46.74433 3836 ft 219 kts 137°
2026-04-29 13:09 24.90707 46.75574 4101 ft 240 kts 138°
2026-04-29 13:09 24.89373 46.76828 4443 ft 263 kts 138°
2026-04-29 13:09 24.87946 46.78152 5144 ft 270 kts 140°
2026-04-29 13:10 24.86332 46.79243 5969 ft 275 kts 150°
2026-04-29 13:10 24.84634 46.80239 6799 ft 277 kts 151°
2026-04-29 13:10 24.82916 46.81212 7654 ft 278 kts 154°
2026-04-29 13:10 24.81196 46.82176 8588 ft 277 kts 155°
2026-04-29 13:11 24.79475 46.83099 9364 ft 280 kts 161°
2026-04-29 13:11 24.77605 46.83687 10184 ft 279 kts 168°
2026-04-29 13:11 24.75649 46.84211 10520 ft 301 kts 168°
2026-04-29 13:11 24.73541 46.84785 10713 ft 324 kts 168°
2026-04-29 13:12 24.71309 46.85405 11137 ft 336 kts 168°
2026-04-29 13:12 24.69026 46.86045 11769 ft 341 kts 170°
2026-04-29 13:12 24.66673 46.86287 12404 ft 340 kts 187°
2026-04-29 13:12 24.64376 46.85714 13068 ft 339 kts 205°
2026-04-29 13:13 24.62362 46.84395 13756 ft 338 kts 221°
2026-04-29 13:13 24.60806 46.82461 14391 ft 339 kts 238°
2026-04-29 13:13 24.59653 46.80199 15059 ft 340 kts 240°
2026-04-29 13:13 24.58515 46.77912 15704 ft 342 kts 240°
2026-04-29 13:14 24.57369 46.75610 16339 ft 344 kts 240°
2026-04-29 13:14 24.56220 46.73302 16967 ft 346 kts 240°
2026-04-29 13:14 24.55061 46.70982 17599 ft 348 kts 240°
2026-04-29 13:14 24.54095 46.68540 18198 ft 352 kts 252°
2026-04-29 13:15 24.53724 46.65864 18705 ft 360 kts 265°
2026-04-29 13:15 24.54035 46.63103 19215 ft 371 kts 280°
2026-04-29 13:15 24.55053 46.60454 19712 ft 384 kts 294°
2026-04-29 13:15 24.56441 46.57921 20227 ft 388 kts 295°
2026-04-29 13:16 24.57847 46.55372 20723 ft 391 kts 294°
2026-04-29 13:16 24.59261 46.52810 21216 ft 394 kts 294°
2026-04-29 13:16 24.60682 46.50231 21688 ft 397 kts 294°
2026-04-29 13:16 24.62110 46.47621 22181 ft 400 kts 294°
2026-04-29 13:17 24.63548 46.44990 22690 ft 403 kts 294°
2026-04-29 13:17 24.64996 46.42337 23205 ft 406 kts 294°
2026-04-29 13:17 24.66452 46.39672 23665 ft 407 kts 294°
2026-04-29 13:17 24.67916 46.36993 24077 ft 409 kts 294°
2026-04-29 13:18 24.69384 46.34310 24454 ft 410 kts 294°
2026-04-29 13:18 24.70855 46.31620 24818 ft 411 kts 294°
2026-04-29 13:18 24.72332 46.28923 25193 ft 412 kts 294°
2026-04-29 13:18 24.73811 46.26216 25544 ft 414 kts 294°
2026-04-29 13:19 24.75294 46.23498 25873 ft 415 kts 294°
2026-04-29 13:19 24.76780 46.20770 26197 ft 417 kts 294°
2026-04-29 13:19 24.78250 46.18067 26525 ft 418 kts 294°
2026-04-29 13:19 24.79743 46.15320 26879 ft 419 kts 294°
2026-04-29 13:20 24.81243 46.12565 27204 ft 419 kts 294°
2026-04-29 13:20 24.82743 46.09810 27503 ft 420 kts 293°
2026-04-29 13:20 24.84249 46.07042 27796 ft 422 kts 293°
2026-04-29 13:20 24.85758 46.04265 28066 ft 423 kts 293°
2026-04-29 13:21 24.87270 46.01478 28326 ft 424 kts 293°
2026-04-29 13:21 24.88786 45.98682 28562 ft 426 kts 293°
2026-04-29 13:21 24.90304 45.95880 28797 ft 427 kts 293°
2026-04-29 13:21 24.91827 45.93069 29028 ft 428 kts 293°
2026-04-29 13:22 24.93356 45.90240 29285 ft 429 kts 293°
2026-04-29 13:22 24.94885 45.87412 29517 ft 430 kts 293°
2026-04-29 13:22 24.96416 45.84584 29711 ft 431 kts 293°
2026-04-29 13:22 24.97952 45.81747 29897 ft 432 kts 293°
2026-04-29 13:23 24.99469 45.78942 30114 ft 431 kts 293°
2026-04-29 13:23 25.00999 45.76111 30344 ft 430 kts 293°
2026-04-29 13:23 25.02528 45.73279 30567 ft 429 kts 293°
2026-04-29 13:23 25.03940 45.70406 30776 ft 422 kts 286°
2026-04-29 13:24 25.04863 45.67378 30974 ft 413 kts 277°
2026-04-29 13:24 25.05276 45.64281 31218 ft 405 kts 268°
2026-04-29 13:24 25.05207 45.61204 31450 ft 400 kts 262°
2026-04-29 13:24 25.04984 45.58150 31675 ft 399 kts 262°
2026-04-29 13:25 25.04766 45.55095 31897 ft 399 kts 262°
2026-04-29 13:25 25.04333 45.48993 32340 ft 399 kts 262°
2026-04-29 13:25 25.04117 45.45949 32553 ft 398 kts 262°
2026-04-29 13:26 25.03905 45.42901 32779 ft 398 kts 262°
2026-04-29 13:26 25.03691 45.39853 33014 ft 398 kts 262°
2026-04-29 13:26 25.03478 45.36845 33256 ft 397 kts 262°
2026-04-29 13:26 25.03262 45.33809 33504 ft 397 kts 262°
2026-04-29 13:27 25.03045 45.30773 33750 ft 396 kts 262°
2026-04-29 13:27 25.02826 45.27743 33986 ft 396 kts 262°
2026-04-29 13:27 25.02603 45.24720 34194 ft 395 kts 262°
2026-04-29 13:27 25.02377 45.21700 34392 ft 395 kts 262°
2026-04-29 13:28 25.02154 45.18679 34583 ft 395 kts 262°
2026-04-29 13:28 25.01935 45.15656 34773 ft 395 kts 262°
2026-04-29 13:28 25.01716 45.12636 34955 ft 395 kts 262°
2026-04-29 13:28 25.01496 45.09608 35145 ft 395 kts 262°
2026-04-29 13:29 25.01273 45.06589 35316 ft 395 kts 262°
2026-04-29 13:29 25.01047 45.03570 35493 ft 395 kts 262°
2026-04-29 13:29 25.00820 45.00555 35669 ft 395 kts 262°
2026-04-29 13:29 25.00593 44.97534 35849 ft 395 kts 262°
2026-04-29 13:30 25.00144 44.91526 35915 ft 395 kts 262°
2026-04-29 13:30 24.99690 44.85482 35914 ft 395 kts 262°
2026-04-29 13:31 24.99240 44.79436 35911 ft 395 kts 262°
2026-04-29 13:31 24.98781 44.73390 35915 ft 395 kts 262°
2026-04-29 13:32 24.98326 44.67393 35909 ft 395 kts 262°
2026-04-29 13:32 24.97862 44.61356 35923 ft 395 kts 262°
2026-04-29 13:33 24.97404 44.55313 35920 ft 395 kts 262°
2026-04-29 13:33 24.96938 44.49277 35900 ft 395 kts 262°
2026-04-29 13:34 24.96541 44.43238 35904 ft 396 kts 264°
2026-04-29 13:34 24.96361 44.37209 35914 ft 396 kts 265°
2026-04-29 13:35 24.96214 44.31139 35909 ft 396 kts 264°
2026-04-29 13:35 24.96026 44.25070 35902 ft 396 kts 264°
2026-04-29 13:36 24.95815 44.18996 35915 ft 396 kts 264°
2026-04-29 13:36 24.95599 44.12926 35910 ft 396 kts 264°
2026-04-29 13:37 24.95385 44.06852 35897 ft 396 kts 264°
2026-04-29 13:37 24.95176 44.00817 35900 ft 396 kts 264°
2026-04-29 13:38 24.94966 43.94743 35878 ft 396 kts 264°
2026-04-29 13:38 24.94749 43.88659 35876 ft 397 kts 264°
2026-04-29 13:39 24.94525 43.82576 35887 ft 397 kts 264°
2026-04-29 13:39 24.94307 43.76530 35886 ft 397 kts 264°
2026-04-29 13:40 24.94081 43.70440 35886 ft 398 kts 264°
2026-04-29 13:40 24.93857 43.64355 35884 ft 398 kts 264°
2026-04-29 13:41 24.93627 43.58264 35895 ft 398 kts 264°
2026-04-29 13:41 24.93393 43.52175 35894 ft 398 kts 264°
2026-04-29 13:42 24.93155 43.46084 35890 ft 398 kts 264°
2026-04-29 13:42 24.92917 43.40029 35879 ft 398 kts 264°
2026-04-29 13:43 24.92677 43.33932 35871 ft 398 kts 264°
2026-04-29 13:43 24.92434 43.27838 35870 ft 398 kts 264°
2026-04-29 13:44 24.92184 43.21737 35884 ft 398 kts 264°
2026-04-29 13:44 24.91937 43.15638 35871 ft 398 kts 264°
2026-04-29 13:45 24.91688 43.09549 35875 ft 398 kts 264°
2026-04-29 13:45 24.91434 43.03466 35872 ft 397 kts 264°
2026-04-29 13:46 24.91179 42.97429 35885 ft 397 kts 264°
2026-04-29 13:46 24.90921 42.91368 35878 ft 396 kts 264°
2026-04-29 13:47 24.90664 42.85313 35873 ft 395 kts 264°
2026-04-29 13:47 24.90412 42.79264 35847 ft 395 kts 264°
2026-04-29 13:48 24.90153 42.73212 35844 ft 396 kts 264°
2026-04-29 13:48 24.89887 42.67149 35839 ft 396 kts 264°
2026-04-29 13:49 24.89619 42.61135 35849 ft 396 kts 264°
2026-04-29 13:49 24.89347 42.55082 35852 ft 395 kts 264°
2026-04-29 13:50 24.89071 42.49036 35844 ft 395 kts 264°
2026-04-29 13:50 24.88792 42.42993 35843 ft 395 kts 264°
2026-04-29 13:51 24.88519 42.36959 35857 ft 394 kts 264°
2026-04-29 13:51 24.87985 42.30970 35850 ft 392 kts 260°
2026-04-29 13:52 24.87204 42.25034 35823 ft 391 kts 259°
2026-04-29 13:52 24.86425 42.19102 35837 ft 392 kts 260°
2026-04-29 13:53 24.85706 42.13200 35837 ft 391 kts 260°
2026-04-29 13:53 24.85005 42.07254 35837 ft 391 kts 261°
2026-04-29 13:54 24.84306 42.01320 35836 ft 391 kts 260°
2026-04-29 13:54 24.83592 41.95390 35843 ft 390 kts 260°
2026-04-29 13:55 24.82992 41.90466 35847 ft 390 kts 260°
2026-04-29 13:55 24.82271 41.84547 35845 ft 390 kts 260°
2026-04-29 13:56 24.81556 41.78627 35843 ft 390 kts 260°
2026-04-29 13:56 24.80837 41.72709 35844 ft 390 kts 260°
2026-04-29 13:57 24.80108 41.66796 35851 ft 390 kts 260°
2026-04-29 13:57 24.79384 41.60876 35851 ft 390 kts 260°
2026-04-29 13:58 24.78667 41.54997 35867 ft 390 kts 260°
2026-04-29 13:58 24.77943 41.49086 35873 ft 389 kts 260°
2026-04-29 13:59 24.77205 41.43174 35875 ft 389 kts 260°
2026-04-29 13:59 24.76466 41.37275 35873 ft 389 kts 260°
2026-04-29 14:00 24.75736 41.31420 35887 ft 388 kts 260°
2026-04-29 14:00 24.75001 41.25533 35857 ft 388 kts 260°
2026-04-29 14:01 24.74262 41.19644 35856 ft 389 kts 260°
2026-04-29 14:01 24.73516 41.13752 35858 ft 389 kts 260°
2026-04-29 14:02 24.72768 41.07863 35881 ft 389 kts 260°
2026-04-29 14:02 24.72025 41.01967 35881 ft 389 kts 260°
2026-04-29 14:03 24.71277 40.96075 35878 ft 388 kts 260°
2026-04-29 14:03 24.70528 40.90192 35891 ft 388 kts 260°
2026-04-29 14:04 24.69780 40.84348 35885 ft 388 kts 260°
2026-04-29 14:04 24.69027 40.78471 35885 ft 388 kts 260°
2026-04-29 14:05 24.68274 40.72595 35860 ft 388 kts 260°
2026-04-29 14:05 24.67518 40.66721 35865 ft 388 kts 260°
2026-04-29 14:06 24.66759 40.60838 35866 ft 389 kts 260°
2026-04-29 14:06 24.65993 40.54947 35880 ft 389 kts 260°
2026-04-29 14:07 24.65227 40.49095 35876 ft 389 kts 260°
2026-04-29 14:07 24.64451 40.43199 35910 ft 389 kts 260°
2026-04-29 14:08 24.63681 40.37318 35909 ft 388 kts 260°
2026-04-29 14:08 24.62912 40.31436 35912 ft 388 kts 260°
2026-04-29 14:09 24.62134 40.25568 35908 ft 388 kts 260°
2026-04-29 14:09 24.61357 40.19699 35905 ft 388 kts 260°
2026-04-29 14:10 24.60575 40.13827 35895 ft 388 kts 260°
2026-04-29 14:10 24.59791 40.07960 35900 ft 388 kts 260°
2026-04-29 14:11 24.59003 40.02080 35920 ft 389 kts 260°
2026-04-29 14:11 24.58223 39.96206 35920 ft 388 kts 260°
2026-04-29 14:12 24.57438 39.90357 35924 ft 388 kts 260°
2026-04-29 14:12 24.56640 39.84482 35923 ft 388 kts 260°
2026-04-29 14:13 24.55843 39.78616 35937 ft 388 kts 260°
2026-04-29 14:13 24.55050 39.72760 35940 ft 387 kts 260°
2026-04-29 14:14 24.53925 39.67001 35939 ft 386 kts 255°
2026-04-29 14:14 24.52599 39.61329 35939 ft 386 kts 255°
2026-04-29 14:15 24.51262 39.55624 35949 ft 384 kts 255°
2026-04-29 14:15 24.49934 39.49939 35944 ft 383 kts 255°
2026-04-29 14:16 24.48606 39.44266 35933 ft 383 kts 255°
2026-04-29 14:16 24.47279 39.38596 35929 ft 383 kts 255°
2026-04-29 14:17 24.45958 39.32958 35940 ft 383 kts 255°
2026-04-29 14:17 24.44625 39.27305 35938 ft 382 kts 255°
2026-04-29 14:18 24.43290 39.21665 35922 ft 382 kts 255°
2026-04-29 14:18 24.41960 39.16023 35914 ft 382 kts 255°
2026-04-29 14:19 24.40623 39.10372 35930 ft 382 kts 256°
2026-04-29 14:19 24.39284 39.04726 35936 ft 382 kts 255°
2026-04-29 14:20 24.37940 38.99076 35926 ft 381 kts 255°
2026-04-29 14:20 24.36609 38.93490 35920 ft 381 kts 255°
2026-04-29 14:21 24.35276 38.87881 35927 ft 380 kts 256°
2026-04-29 14:21 24.33938 38.82274 35908 ft 380 kts 256°
2026-04-29 14:22 24.32596 38.76666 35875 ft 380 kts 255°
2026-04-29 14:22 24.31247 38.71047 35852 ft 380 kts 256°
2026-04-29 14:23 24.29896 38.65429 35863 ft 381 kts 256°
2026-04-29 14:23 24.28545 38.59807 35869 ft 381 kts 256°
2026-04-29 14:24 24.27189 38.54188 35869 ft 381 kts 255°
2026-04-29 14:24 24.25838 38.48607 35890 ft 381 kts 255°
2026-04-29 14:25 24.24480 38.43002 35857 ft 381 kts 256°
2026-04-29 14:25 24.23123 38.37396 35835 ft 380 kts 255°
2026-04-29 14:26 24.21767 38.31790 35816 ft 380 kts 256°
2026-04-29 14:26 24.20405 38.26183 35796 ft 381 kts 255°
2026-04-29 14:27 24.19030 38.20563 35795 ft 382 kts 255°
2026-04-29 14:28 24.16969 38.12122 35809 ft 382 kts 256°
2026-04-29 14:28 24.15689 38.06519 35797 ft 382 kts 262°
2026-04-29 14:29 24.16016 38.00726 35795 ft 388 kts 281°
2026-04-29 14:29 24.17816 37.95117 35809 ft 391 kts 284°
2026-04-29 14:30 24.19660 37.89503 35814 ft 391 kts 284°
2026-04-29 14:30 24.21499 37.83901 35818 ft 391 kts 284°
2026-04-29 14:31 24.23325 37.78291 35825 ft 391 kts 284°
2026-04-29 14:31 24.25151 37.72684 35829 ft 390 kts 284°
2026-04-29 14:32 24.26979 37.67085 35859 ft 390 kts 284°
2026-04-29 14:32 24.28800 37.61481 35864 ft 390 kts 284°
2026-04-29 14:33 24.30616 37.55879 35859 ft 390 kts 284°
2026-04-29 14:33 24.32428 37.50276 35866 ft 390 kts 284°
2026-04-29 14:34 24.34248 37.44673 35881 ft 389 kts 284°
2026-04-29 14:34 24.36058 37.39083 35883 ft 389 kts 284°
2026-04-29 14:35 24.37852 37.33529 35879 ft 389 kts 284°
2026-04-29 14:35 24.39651 37.27938 35882 ft 389 kts 284°
2026-04-29 14:36 24.41450 37.22348 35898 ft 388 kts 284°
2026-04-29 14:36 24.43247 37.16757 35896 ft 388 kts 284°
2026-04-29 14:37 24.45036 37.11169 35899 ft 388 kts 284°
2026-04-29 14:37 24.46833 37.05586 35901 ft 388 kts 284°
2026-04-29 14:38 24.48630 36.99997 35899 ft 388 kts 284°
2026-04-29 14:38 24.50115 36.95358 35919 ft 387 kts 284°
2026-04-29 14:39 24.51887 36.89775 35911 ft 387 kts 284°
2026-04-29 14:39 24.53951 36.83299 35907 ft 386 kts 284°
2026-04-29 14:40 24.55728 36.77723 35904 ft 386 kts 284°
2026-04-29 14:40 24.57210 36.73056 35912 ft 386 kts 284°
2026-04-29 14:41 24.58981 36.67489 35913 ft 386 kts 284°
2026-04-29 14:41 24.60732 36.61960 35909 ft 385 kts 284°
2026-04-29 14:42 24.62493 36.56395 35907 ft 385 kts 284°
2026-04-29 14:42 24.64231 36.50827 35904 ft 385 kts 284°
2026-04-29 14:43 24.65963 36.45250 35919 ft 384 kts 284°
2026-04-29 14:43 24.67689 36.39693 35915 ft 384 kts 284°
2026-04-29 14:44 24.69402 36.34162 35908 ft 384 kts 284°
2026-04-29 14:44 24.71120 36.28596 35905 ft 384 kts 284°
2026-04-29 14:45 24.72834 36.23043 35911 ft 384 kts 284°
2026-04-29 14:45 24.74550 36.17488 35908 ft 383 kts 284°
2026-04-29 14:46 24.76258 36.11935 35904 ft 383 kts 284°
2026-04-29 14:46 24.77969 36.06383 35901 ft 383 kts 284°
2026-04-29 14:47 24.79678 36.00830 35899 ft 383 kts 284°
2026-04-29 14:47 24.81384 35.95273 35901 ft 383 kts 284°
2026-04-29 14:48 24.83093 35.89715 35897 ft 383 kts 284°
2026-04-29 14:48 24.84779 35.84191 35893 ft 383 kts 284°
2026-04-29 14:49 24.86482 35.78595 35895 ft 383 kts 284°
2026-04-29 14:49 24.88167 35.73062 35910 ft 383 kts 284°
2026-04-29 14:50 24.89860 35.67498 35907 ft 383 kts 284°
2026-04-29 14:50 24.91548 35.61942 35904 ft 383 kts 284°
2026-04-29 14:51 24.93238 35.56384 35901 ft 382 kts 284°
2026-04-29 14:51 24.94925 35.50829 35900 ft 382 kts 284°
2026-04-29 14:52 24.96606 35.45270 35906 ft 382 kts 284°
2026-04-29 14:52 24.98280 35.39714 35904 ft 382 kts 284°
2026-04-29 14:53 24.99957 35.34160 35903 ft 382 kts 284°
2026-04-29 14:53 25.01640 35.28603 35902 ft 382 kts 284°
2026-04-29 14:54 25.03312 35.23043 35917 ft 382 kts 284°
2026-04-29 14:54 25.04978 35.17479 35913 ft 382 kts 284°
2026-04-29 14:55 25.06643 35.11922 35913 ft 382 kts 284°
2026-04-29 14:55 25.08302 35.06402 35911 ft 382 kts 284°
2026-04-29 14:56 25.09968 35.00839 35916 ft 382 kts 284°
2026-04-29 14:56 25.11632 34.95275 35911 ft 382 kts 284°
2026-04-29 14:57 25.13294 34.89712 35907 ft 382 kts 284°
2026-04-29 14:57 25.14955 34.84136 35636 ft 383 kts 284°
2026-04-29 14:57 25.15791 34.81332 35401 ft 384 kts 284°
2026-04-29 14:58 25.16626 34.78529 35176 ft 385 kts 284°
2026-04-29 14:58 25.17462 34.75711 34946 ft 386 kts 284°
2026-04-29 14:58 25.18294 34.72888 34742 ft 387 kts 285°
2026-04-29 14:58 25.19132 34.70058 34516 ft 388 kts 285°
2026-04-29 14:59 25.19976 34.67222 34291 ft 390 kts 285°
2026-04-29 14:59 25.20827 34.64366 34069 ft 391 kts 285°
2026-04-29 14:59 25.21674 34.61510 33836 ft 392 kts 285°
2026-04-29 14:59 25.22521 34.58637 33572 ft 393 kts 285°
2026-04-29 15:00 25.23369 34.55762 33309 ft 395 kts 285°
2026-04-29 15:00 25.24224 34.52871 33054 ft 396 kts 285°
2026-04-29 15:00 25.25079 34.49975 32799 ft 397 kts 286°
2026-04-29 15:00 25.25934 34.47068 32546 ft 398 kts 286°
2026-04-29 15:01 25.26781 34.44190 32288 ft 400 kts 286°
2026-04-29 15:01 25.27642 34.41258 31377 ft 404 kts 287°
2026-04-29 15:01 25.28512 34.38298 30479 ft 405 kts 287°
2026-04-29 15:01 25.29383 34.35331 29430 ft 408 kts 288°
2026-04-29 15:02 25.30255 34.32370 28872 ft 400 kts 288°
2026-04-29 15:02 25.31109 34.29477 28260 ft 393 kts 288°
2026-04-29 15:02 25.31949 34.26622 27644 ft 388 kts 288°
2026-04-29 15:02 25.32777 34.23799 27051 ft 383 kts 288°
2026-04-29 15:03 25.33593 34.21016 26459 ft 379 kts 288°
2026-04-29 15:03 25.34399 34.18256 25887 ft 375 kts 288°
2026-04-29 15:03 25.35195 34.15529 25317 ft 371 kts 288°
2026-04-29 15:03 25.35985 34.12817 24759 ft 368 kts 288°
2026-04-29 15:04 25.36767 34.10130 24194 ft 366 kts 288°
2026-04-29 15:04 25.37549 34.07455 23633 ft 363 kts 288°
2026-04-29 15:04 25.38324 34.04805 23053 ft 361 kts 288°
2026-04-29 15:04 25.39088 34.02178 22521 ft 357 kts 288°
2026-04-29 15:05 25.39841 33.99585 22039 ft 352 kts 288°
2026-04-29 15:05 25.40586 33.97021 21565 ft 348 kts 288°
2026-04-29 15:05 25.41319 33.94490 21120 ft 344 kts 288°
2026-04-29 15:05 25.42043 33.91989 20683 ft 340 kts 288°
2026-04-29 15:06 25.42902 33.89579 20342 ft 334 kts 302°
2026-04-29 15:06 25.44565 33.87789 20272 ft 341 kts 327°
2026-04-29 15:06 25.46866 33.87017 20190 ft 355 kts 349°
2026-04-29 15:06 25.49358 33.87180 19814 ft 365 kts
2026-04-29 15:07 25.51721 33.88299 19458 ft 378 kts 27°
2026-04-29 15:07 25.53607 33.90338 19101 ft 393 kts 50°
2026-04-29 15:07 25.54714 33.93133 18725 ft 405 kts 74°
2026-04-29 15:07 25.54762 33.96262 18315 ft 411 kts 99°
2026-04-29 15:08 25.53741 33.99206 17869 ft 411 kts 118°
2026-04-29 15:08 25.52371 34.01985 17452 ft 409 kts 119°
2026-04-29 15:08 25.50994 34.04728 17033 ft 405 kts 119°
2026-04-29 15:08 25.49625 34.07438 16619 ft 402 kts 119°
2026-04-29 15:09 25.48271 34.10130 16235 ft 397 kts 119°
2026-04-29 15:09 25.47073 34.12868 15842 ft 393 kts 110°
2026-04-29 15:09 25.46204 34.15691 15299 ft 393 kts 107°
2026-04-29 15:09 25.45352 34.18566 14767 ft 393 kts 107°
2026-04-29 15:10 25.44501 34.21436 14227 ft 393 kts 107°
2026-04-29 15:10 25.43649 34.24308 13688 ft 392 kts 107°
2026-04-29 15:10 25.42788 34.27202 13093 ft 389 kts 107°
2026-04-29 15:10 25.41951 34.29997 12571 ft 386 kts 108°
2026-04-29 15:11 25.41108 34.32801 12025 ft 383 kts 108°
2026-04-29 15:11 25.40273 34.35582 11471 ft 380 kts 108°
2026-04-29 15:11 25.39444 34.38347 10908 ft 377 kts 108°
2026-04-29 15:11 25.38621 34.41086 10518 ft 370 kts 108°
2026-04-29 15:12 25.37825 34.43731 10393 ft 355 kts 108°
2026-04-29 15:12 25.37306 34.45453 10312 ft 345 kts 108°
2026-04-29 15:12 25.36327 34.48711 10155 ft 329 kts 108°
2026-04-29 15:12 25.35618 34.51070 9972 ft 320 kts 108°
2026-04-29 15:13 25.34920 34.53384 9681 ft 315 kts 108°
2026-04-29 15:13 25.34227 34.55673 9281 ft 313 kts 108°
2026-04-29 15:13 25.33540 34.57962 8778 ft 316 kts 107°
2026-04-29 15:13 25.32923 34.60285 8398 ft 311 kts 104°
2026-04-29 15:14 25.32373 34.62579 7752 ft 307 kts 104°
2026-04-29 15:14 25.31885 34.64882 6958 ft 307 kts 95°
2026-04-29 15:14 25.32119 34.67180 6313 ft 296 kts 64°
2026-04-29 15:14 25.33236 34.68989 6107 ft 277 kts 38°
2026-04-29 15:15 25.34833 34.70066 5638 ft 269 kts 13°
2026-04-29 15:15 25.36668 34.70236 4941 ft 263 kts 348°
2026-04-29 15:15 25.38322 34.69551 4275 ft 255 kts 329°
2026-04-29 15:15 25.39837 34.68566 3616 ft 250 kts 329°
2026-04-29 15:16 25.41325 34.67604 2984 ft 246 kts 331°
2026-04-29 15:16 25.42791 34.66660 2613 ft 241 kts 332°
2026-04-29 15:16 25.44223 34.65741 2371 ft 234 kts 332°
2026-04-29 15:16 25.45600 34.64859 2167 ft 226 kts 332°
2026-04-29 15:17 25.46939 34.64001 1984 ft 218 kts 332°
2026-04-29 15:17 25.48245 34.63162 1689 ft 214 kts 332°
2026-04-29 15:17 25.49491 34.62362 1399 ft 198 kts 332°
2026-04-29 15:17 25.50258 34.61867 1242 ft 188 kts 332°
2026-04-29 15:18 25.51674 34.60959 934 ft 162 kts 329°
2026-04-29 15:18 25.52583 34.60378 733 ft 143 kts 330°
2026-04-29 15:18 25.53421 34.59841 538 ft 140 kts 332°
2026-04-29 15:18 25.54259 34.59304 358 ft 137 kts 332°
2026-04-29 15:19 25.55063 34.58787 260 ft 124 kts 332°
2026-04-29 15:19 25.55686 34.58400 261 ft 78 kts 330°
2026-04-29 15:19 25.56021 34.58196 261 ft 35 kts 336°
2026-04-29 15:19 25.56119 34.58156 259 ft 11 kts 288°
2026-04-29 15:20 25.56060 34.58150 260 ft 10 kts 149°
2026-04-29 15:20 25.56006 34.58188 261 ft 8 kts 148°
2026-04-29 15:20 25.55949 34.58227 263 ft 12 kts 148°
2026-04-29 15:20 25.55869 34.58280 263 ft 14 kts 149°
2026-04-29 15:21 25.55780 34.58339 261 ft 15 kts 149°
2026-04-29 15:21 25.55689 34.58397 261 ft 15 kts 150°
2026-04-29 15:21 25.55631 34.58434 260 ft 15 kts 150°
2026-04-29 15:21 25.55501 34.58522 256 ft 18 kts 135°
2026-04-29 15:22 25.55516 34.58630 256 ft 12 kts 58°
2026-04-29 15:22 25.55569 34.58724 253 ft 17 kts 59°
2026-04-29 15:22 25.55627 34.58838 243 ft 16 kts 68°
2026-04-29 15:22 25.55606 34.58906 242 ft 14 kts 141°
2026-04-29 15:23 25.55588 34.58919 242 ft 0 kts 150°
2026-04-29 15:23 25.55586 34.58920 242 ft 2 kts 150°
2026-04-29 15:23 25.55553 34.58941 242 ft 7 kts 151°
2026-04-29 15:24 25.55508 34.58969 242 ft 8 kts 150°
2026-04-29 15:24 25.55484 34.59009 242 ft 6 kts 84°
2026-04-29 15:24 25.55508 34.59057 242 ft 5 kts 59°
2026-04-29 15:24 25.55513 34.59066 242 ft 1 kts 59°